Lapse_Rate
6.8 6.5 6.5 6.5 6.5 6.5 6.5 6.5 6.5 6.5 6.5 6.5 6.5 6.5 6.5 6.4 6.1 6.2 4.7 5.8 5.4 2.8 3.2 3.3 2.0 5.5 5.6 4.3 4.1 4.5 5.0 3.6 5.5 5.9 6.2 5.4 6.4 4.4 4.7 4.2 4.2 4.1 4.0 3.6
6.5 6.5 6.5 6.5 6.5 6.5 6.5 6.5 6.5 6.5 6.5 6.5 6.5 6.5 6.5 6.5 6.5 6.2 6.1 5.4 6.0 4.6 3.3 3.1 2.4 2.3 4.6 4.5 3.4 4.0 4.6 4.0 4.9 5.6 6.6 6.7 6.6 5.0 4.4 4.2 4.0 4.2 3.9 4.3
6.5 6.5 6.5 6.5 6.5 6.5 6.5 6.5 6.5 6.5 6.5 6.5 6.5 6.5 6.5 6.5 6.3 6.3 6.3 6.1 4.1 6.0 4.3 4.7 3.1 2.7 3.9 4.1 3.6 3.0 4.1 4.0 4.2 4.8 6.4 5.0 5.3 4.6 4.8 4.6 4.7 3.7 3.1 3.2
6.5 6.5 6.5 6.5 6.5 6.5 6.5 6.5 6.5 6.5 6.5 6.5 6.5 6.5 6.5 6.5 6.5 6.5 6.2 6.0 5.5 2.8 5.6 5.1 4.5 2.6 1.8 3.3 3.5 3.3 3.4 3.8 4.0 4.4 5.3 6.1 6.6 6.2 5.7 5.8 4.9 4.5 3.3 2.9
6.5 6.5 6.5 6.5 6.5 6.5 6.5 6.5 6.5 6.5 6.5 6.5 6.5 6.5 6.5 6.5 6.5 6.5 6.5 5.9 2.6 1.9 2.7 3.2 4.6 2.7 2.7 2.6 3.2 3.6 3.3 3.1 3.9 3.5 3.6 4.4 6.4 6.0 6.8 6.5 5.0 4.5 3.7 4.0
6.5 6.8 6.5 6.5 6.5 6.5 6.5 6.5 6.5 6.5 6.5 6.5 6.5 6.5 6.5 6.5 6.5 6.5 6.5 5.1 4.3 3.3 2.8 4.1 2.4 0.5 3.0 0.4 3.1 3.9 3.4 3.1 3.6 2.9 3.5 3.4 4.4 6.2 6.9 6.1 5.4 4.2 3.7 4.2
6.5 6.5 6.5 6.5 6.5 6.5 6.5 6.5 6.5 6.5 6.5 6.5 6.5 6.5 6.5 6.5 6.5 6.5 6.5 5.9 4.8 4.7 2.3 2.3 1.8 2.1 1.6 1.3 2.3 3.5 3.5 2.9 2.8 2.6 3.2 3.3 3.2 5.4 6.7 6.1 5.7 4.6 4.3 4.1
6.5 6.5 6.5 6.5 6.5 6.5 6.5 6.5 6.5 6.5 6.5 6.5 6.5 6.5 6.5 6.5 6.5 6.0 6.1 6.0 5.2 5.5 5.8 3.5 3.5 2.7 3.2 2.0 2.6 2.5 3.6 3.8 3.1 2.6 2.3 3.3 3.5 4.6 6.7 6.3 5.8 4.7 3.6 3.3
6.5 6.5 6.5 6.5 6.5 6.5 6.5 6.5 6.5 6.5 6.5 6.5 6.5 6.5 6.5 6.5 6.5 6.5 6.5 6.0 3.3 2.0 3.9 5.5 4.1 4.2 4.1 1.1 2.3 2.6 2.4 4.6 4.8 2.7 2.0 3.3 4.2 4.6 6.2 5.7 5.4 4.3 3.6 2.8
6.5 6.5 6.5 6.5 6.5 6.5 6.5 6.5 6.5 6.5 6.5 6.5 6.5 6.5 6.5 6.5 6.5 6.5 6.5 6.5 5.7 5.1 3.6 2.2 2.4 5.1 4.9 5.0 1.5 1.6 2.5 2.8 4.8 5.4 3.0 2.3 4.1 4.8 5.6 4.9 4.3 3.7 3.2 2.5
6.5 6.5 6.5 6.5 6.5 6.5 6.5 6.5 6.5 6.5 6.5 6.5 6.5 6.5 6.5 6.5 6.5 6.5 6.5 6.3 6.1 5.9 6.0 5.4 1.7 0.8 0.8 2.3 1.0 1.5 1.5 2.6 3.0 5.7 4.6 3.9 4.2 5.2 3.9 4.8 3.4 2.7 2.4 2.3
6.5 6.5 6.5 6.5 6.5 6.5 6.5 6.5 6.5 6.5 6.5 6.5 6.5 6.5 6.5 6.5 6.5 6.5 6.5 6.4 6.4 5.9 4.1 3.1 1.4 0.1 0.5 -0.5 -1.7 0.3 0.7 1.6 2.0 2.1 4.4 4.4 3.2 3.1 2.8 2.6 2.6 2.0 2.4 2.0
6.5 6.5 6.5 6.5 6.5 6.5 6.5 6.5 6.5 6.5 6.5 6.5 6.5 6.5 6.5 6.5 6.5 6.5 6.5 5.6 5.8 5.8 3.1 1.6 0.8 0.4 0.7 -0.1 -0.9 -0.9 -0.3 0.5 -0.6 0.9 3.4 3.5 2.4 2.1 2.2 1.9 1.9 1.9 2.2 2.4
6.6 6.5 6.5 6.5 6.5 6.5 6.5 6.5 6.5 6.5 6.5 6.5 6.5 6.5 6.5 6.5 6.5 6.5 6.5 6.2 5.8 4.9 3.0 1.5 0.7 1.0 1.0 0.8 0.4 -0.3 -0.9 -0.7 -0.2 0.4 1.4 2.6 2.6 2.4 1.9 1.6 1.6 1.9 1.8 2.5
6.5 6.5 6.5 6.5 6.5 6.5 6.5 6.5 6.5 6.5 6.5 6.5 6.5 6.5 6.5 6.5 6.5 6.5 6.8 6.8 6.6 6.5 5.8 4.4 3.2 2.2 2.0 1.5 1.3 -0.2 -1.3 -1.2 -0.8 -0.0 0.7 1.0 1.4 1.6 1.4 1.6 1.5 1.4 1.2 2.9
6.5 6.5 6.5 6.5 6.5 6.5 6.5 6.5 6.5 6.5 6.5 6.5 6.5 6.5 6.5 6.5 6.7 6.6 6.8 6.7 6.7 6.2 5.7 4.9 4.9 4.4 4.5 3.6 1.9 1.3 0.2 0.1 0.2 0.2 -0.3 0.2 0.5 0.5 1.1 1.1 1.2 1.3 2.1 2.2
6.5 6.5 6.5 6.5 6.5 6.5 6.5 6.5 6.5 6.5 6.5 6.5 6.5 6.5 6.5 6.5 6.5 6.5 6.8 6.8 6.8 6.3 6.4 6.1 5.0 4.5 3.7 4.2 2.9 1.7 1.1 0.8 1.2 1.5 1.9 1.5 1.1 0.6 0.5 1.0 1.0 1.5 1.3 1.1
6.5 6.5 6.5 6.5 6.5 6.5 6.5 6.5 6.5 6.5 6.5 6.5 6.5 6.5 6.5 6.5 6.8 6.4 6.6 7.1 7.3 7.1 7.3 6.9 5.6 4.5 3.8 3.6 2.3 1.2 1.0 0.8 0.8 1.5 2.4 2.2 2.1 1.9 1.2 1.2 1.3 1.1 1.0 0.8
6.5 6.5 6.5 6.5 6.5 6.5 6.5 6.5 6.5 6.5 6.5 6.5 6.5 6.5 6.5 6.6 6.8 6.4 6.5 6.8 7.2 7.4 6.8 6.4 6.3 5.5 4.4 3.7 2.3 1.6 1.3 1.2 1.3 2.2 3.4 3.2 2.7 2.2 1.9 1.7 1.3 1.1 1.2 1.1
6.5 6.5 6.5 6.5 6.5 6.5 6.5 6.5 6.5 6.5 6.5 6.5 6.5 6.5 6.5 6.4 6.5 6.5 6.6 7.5 8.1 7.7 7.9 7.5 7.8 6.1 4.3 3.4 2.4 1.6 0.8 0.5 -0.1 0.4 2.4 3.5 3.1 2.6 2.5 2.0 1.5 1.5 1.2 1.2
6.5 6.5 6.5 6.5 6.5 6.5 6.5 6.5 6.5 6.5 6.5 6.5 6.3 6.2 6.3 6.5 6.5 6.9 7.0 7.3 7.2 7.9 7.4 7.3 8.0 7.2 6.2 4.8 3.9 2.2 1.1 0.6 0.2 0.2 0.7 2.3 3.3 3.2 2.6 1.9 2.1 1.6 2.0 -0.5
6.5 6.5 6.5 6.5 6.5 6.5 6.5 6.5 6.5 6.5 5.7 5.9 5.9 5.9 6.1 6.0 5.5 6.0 6.7 7.0 7.0 6.8 6.8 8.1 6.8 6.4 6.7 4.9 3.8 3.0 2.1 1.4 0.7 0.1 0.9 1.4 2.7 3.5 2.7 2.2 2.3 2.9 1.2 -0.2
6.5 6.5 6.5 6.5 6.5 6.5 6.1 6.4 6.2 5.3 5.7 6.0 5.8 6.0 6.1 5.9 6.4 6.6 6.4 6.1 6.4 6.9 6.5 6.6 6.2 6.0 5.5 5.3 6.0 4.5 3.4 1.8 0.6 0.6 0.7 2.1 3.2 3.3 3.1 2.7 2.8 2.4 1.3 -0.3
6.5 6.5 6.5 6.5 6.5 6.5 6.4 6.5 6.4 6.7 5.5 5.8 5.8 5.5 5.8 5.6 5.5 5.6 5.6 5.8 5.9 6.2 6.3 6.5 6.3 5.8 5.6 5.7 6.2 5.4 4.3 3.0 1.6 0.7 1.2 2.0 3.0 3.2 3.4 3.4 2.7 2.0 1.5 0.8
6.5 6.5 6.5 6.5 6.5 6.1 5.6 5.6 5.8 5.6 5.7 5.9 5.9 6.2 6.1 6.2 6.1 5.4 5.2 5.5 5.6 5.9 5.6 5.9 5.9 5.5 5.7 5.9 6.1 6.5 6.3 3.9 2.5 1.8 2.3 2.9 3.7 4.0 3.3 3.1 2.4 1.7 1.4 0.3
6.5 6.5 6.5 6.5 6.4 6.3 6.1 5.8 6.4 5.6 5.5 6.0 6.0 5.7 5.7 5.8 5.9 6.0 5.6 5.7 5.5 5.0 5.3 5.3 5.2 5.0 5.5 6.0 6.2 6.2 5.5 4.4 3.7 2.1 2.2 2.3 2.6 4.3 3.6 2.4 0.7 -0.6 -0.1 -0.6
Wind_Speed
19 8 18 30 31 31 23 24 23 23 21 20 25 20 16 18 18 18 11 18 16 12 11 11 11 18 23 23 23 24 21 21 17 13 13 8 12 8 8 7 14 15 15 13
14 19 19 20 24 27 30 27 28 17 21 21 17 25 17 16 23 23 23 15 21 16 13 11 11 14 19 25 24 24 24 21 19 15 14 9 9 6 7 6 8 15 15 16
24 12 18 23 22 25 29 31 33 27 17 24 23 23 15 16 23 23 25 20 14 22 18 16 14 16 18 25 25 24 25 24 21 21 12 6 5 4 5 9 11 11 18 18
10 14 23 27 25 23 27 31 29 24 18 16 25 19 19 19 22 21 22 22 17 11 18 19 17 15 17 24 25 25 26 25 21 21 17 20 15 14 13 12 10 12 17 15
6 9 23 28 33 26 27 17 25 22 17 21 19 9 14 25 22 29 19 20 10 9 13 16 20 17 20 21 24 23 25 25 23 23 22 18 17 14 9 10 12 13 13 15
20 10 3 8 20 27 22 22 20 22 22 20 23 20 21 20 29 26 14 12 12 11 11 16 15 12 19 14 21 22 23 23 22 22 22 23 24 16 12 13 12 12 12 12
10 22 9 4 3 17 18 10 7 12 10 16 30 21 24 24 24 13 12 20 17 15 10 13 13 13 15 17 21 22 24 24 23 24 23 23 24 20 19 16 14 14 11 10
5 10 21 13 9 5 19 10 7 13 15 14 17 12 29 31 9 19 23 23 13 21 22 16 16 14 16 21 24 24 27 26 26 26 25 22 23 16 13 15 12 12 13 13
5 6 3 17 13 14 6 8 13 15 13 6 11 10 22 19 22 22 17 18 11 8 15 24 18 20 19 15 23 24 23 26 27 28 24 23 21 20 16 17 15 12 12 11
1 8 13 14 11 15 12 9 11 6 7 14 10 25 21 26 30 24 20 18 20 17 9 8 13 22 18 22 18 22 23 24 23 26 24 22 23 21 18 14 16 16 14 14
1 3 6 11 8 11 7 6 5 1 4 7 11 18 35 7 20 19 23 29 25 22 23 17 10 9 11 14 12 20 19 20 17 18 22 20 18 17 13 15 16 16 14 15
2 0 5 6 9 8 3 5 5 6 5 9 2 16 13 22 5 9 22 26 28 22 17 11 9 10 9 9 10 17 18 18 18 15 18 20 17 13 14 14 14 15 17 16
1 1 6 7 5 9 7 2 1 3 1 8 10 18 2 12 11 14 8 12 20 22 8 5 7 8 8 8 9 10 12 13 11 12 15 16 16 15 15 16 16 16 17 16
1 2 5 4 7 5 3 3 2 2 2 0 16 15 10 14 15 16 19 15 12 9 9 8 8 8 8 8 6 7 7 7 7 8 9 14 17 17 16 16 17 17 15 16
4 4 4 4 7 8 8 8 7 3 1 3 6 13 8 9 9 14 13 17 16 15 12 8 7 7 8 9 9 9 8 7 6 7 8 10 12 14 16 16 15 16 16 15
3 3 4 5 11 12 8 15 13 11 9 12 12 14 7 10 9 12 14 15 15 14 14 9 5 8 7 8 8 8 7 7 7 7 6 7 12 13 15 16 16 16 15 14
5 2 2 3 5 5 7 15 15 8 8 11 11 9 7 11 5 4 12 10 16 11 11 13 6 3 7 7 10 8 8 7 7 7 5 6 8 12 14 16 18 17 17 16
8 4 3 4 3 4 8 8 6 14 11 15 14 13 7 5 12 3 2 10 19 19 18 15 10 4 2 6 8 10 9 8 8 7 8 4 9 11 14 16 17 17 16 18
12 4 1 2 3 9 14 10 8 6 8 10 13 12 9 5 4 8 12 5 10 11 11 15 12 9 4 7 8 10 8 8 8 8 8 10 7 9 10 13 16 16 15 13
11 8 5 1 2 5 6 8 4 4 5 8 6 3 3 5 1 4 10 5 6 4 11 12 17 5 6 6 11 12 11 10 11 11 11 10 10 11 11 13 14 12 14 14
3 2 11 9 5 8 7 14 15 6 5 6 4 5 5 3 4 4 3 2 4 5 6 6 13 13 3 6 3 10 11 13 11 10 12 12 11 12 13 13 11 15 13 13
9 4 4 4 6 8 12 2 0 2 5 4 4 4 4 2 6 6 5 4 4 7 7 2 7 8 11 4 7 8 11 9 9 11 11 12 13 10 10 14 13 13 14 15
4 7 2 7 6 3 5 2 3 6 4 3 3 4 5 3 3 3 3 5 6 5 7 5 4 6 7 7 2 6 12 10 12 12 12 11 12 11 12 13 13 12 14 13
4 5 3 2 5 7 10 12 7 14 7 5 7 6 6 6 7 6 6 5 6 4 5 5 6 6 4 6 7 8 5 13 14 14 13 12 13 12 12 10 10 11 12 11
6 7 6 8 8 7 6 9 6 8 8 8 6 5 6 9 10 7 5 7 7 7 6 5 5 6 5 5 5 6 2 11 13 13 12 12 10 13 11 10 11 11 12 13
4 7 4 8 13 11 7 3 3 7 7 6 7 6 8 8 7 6 6 6 6 7 7 6 8 5 6 6 6 4 5 11 12 12 11 11 11 11 10 9 6 8 7 9
Wind_Direction
263 258 220 204 205 217 222 227 230 236 230 214 236 244 219 207 216 238 224 222 225 216 212 202 173 186 173 172 176 178 174 173 172 180 189 181 190 170 177 171 167 178 180 182
257 256 263 236 219 221 216 226 237 242 215 235 235 235 233 220 218 223 236 225 219 213 209 195 193 179 170 177 179 180 182 173 179 181 191 191 180 178 171 174 174 183 186 196
234 255 285 258 233 223 227 215 230 227 223 219 240 250 233 234 232 223 224 226 210 214 205 204 192 188 180 179 182 181 182 180 182 183 177 164 144 135 167 189 193 186 189 193
242 233 245 266 248 227 230 222 232 232 239 225 213 239 236 236 243 232 221 220 220 200 213 204 197 194 181 183 183 181 180 183 183 176 178 185 191 189 202 200 186 191 189 190
209 224 216 227 243 246 243 233 236 235 236 238 243 242 232 229 233 232 235 212 203 212 198 196 201 192 190 182 183 182 181 181 177 180 182 185 195 207 192 190 187 189 187 191
251 292 287 222 240 237 268 280 276 236 232 242 234 231 244 232 230 228 217 216 214 222 217 221 196 175 189 178 176 179 179 182 181 180 185 185 196 198 191 187 187 186 182 187
260 235 234 248 299 233 246 262 231 238 220 219 225 226 237 230 236 225 214 221 211 223 212 216 201 185 176 171 175 180 180 182 184 184 188 189 194 198 197 189 188 180 182 186
252 244 198 196 192 238 213 225 230 215 208 212 237 226 230 233 265 222 225 245 234 228 230 210 209 193 189 185 182 181 185 186 184 186 191 192 193 194 196 191 188 189 186 192
332 267 239 183 186 167 188 212 240 261 283 245 208 226 276 253 252 240 232 230 234 238 224 226 214 209 206 181 188 187 185 191 188 185 190 192 193 191 190 187 184 184 183 182
276 290 260 176 180 193 213 165 220 197 206 220 215 217 237 221 231 242 254 256 252 256 227 211 225 225 217 206 187 192 192 190 190 187 191 193 192 193 187 171 180 182 176 167
209 250 313 194 192 163 175 221 191 164 213 208 220 235 226 214 236 220 233 243 255 254 256 258 214 204 194 206 181 190 190 194 193 185 190 193 196 194 171 172 174 174 165 165
192 249 289 289 54 33 78 207 222 228 166 211 234 253 195 264 281 245 231 229 230 234 242 220 188 171 175 162 160 177 184 188 192 183 181 189 185 176 168 172 174 163 169 170
40 329 324 285 119 26 62 24 326 237 242 213 196 248 44 18 34 13 321 237 233 236 220 189 147 137 130 127 154 162 173 180 178 167 176 181 173 177 170 169 163 169 168 166
102 249 194 225 257 277 286 338 293 316 194 109 214 225 63 26 8 4 2 23 34 32 95 116 99 100 81 74 117 124 126 141 142 146 157 172 176 176 171 162 164 164 168 163
175 250 214 242 203 242 275 285 286 252 272 234 358 262 149 34 356 360 350 356 10 22 31 65 73 82 85 83 82 75 70 72 84 120 142 153 156 156 156 155 159 157 158 163
214 273 332 284 255 221 246 251 236 249 247 266 267 284 262 96 46 352 352 352 342 7 4 5 75 104 96 107 109 101 85 75 72 70 85 128 147 148 155 152 151 151 154 152
214 192 338 276 27 318 263 235 221 209 207 228 265 239 354 350 341 22 325 332 330 349 357 354 13 145 122 127 132 133 132 124 112 109 102 142 150 152 153 156 151 150 150 150
247 174 145 256 348 268 251 300 229 209 226 224 247 269 261 207 288 199 302 360 331 330 332 343 338 347 156 155 124 129 133 131 128 138 139 148 156 159 155 155 156 154 157 156
227 172 265 191 224 286 295 274 248 221 246 234 240 240 252 160 231 296 134 197 250 288 301 296 302 289 203 171 135 132 136 140 144 157 160 157 159 153 159 155 158 154 151 150
225 208 187 196 228 243 243 312 82 128 289 225 216 357 283 126 162 217 131 169 310 296 328 287 306 332 270 214 148 146 161 166 176 171 167 164 161 160 162 156 151 151 148 141
258 174 214 219 240 269 269 259 292 238 239 6 108 146 102 133 186 251 320 155 329 275 247 322 302 281 275 246 128 166 167 190 182 165 161 158 166 169 163 156 155 149 148 135
248 242 211 188 218 254 286 102 35 247 317 353 12 30 49 354 215 195 202 277 270 281 296 207 306 255 264 220 173 164 190 189 157 159 168 168 162 165 163 158 154 154 145 143
254 220 248 197 215 280 328 62 296 275 240 296 326 325 315 303 266 238 265 297 261 275 296 317 295 320 322 360 88 225 199 156 163 161 170 175 160 159 163 162 159 154 154 151
247 303 211 319 256 287 315 299 287 299 287 302 293 280 271 269 268 242 222 252 274 267 285 279 280 305 342 348 349 328 217 166 163 168 173 170 165 159 164 166 163 160 162 158
248 295 274 267 258 258 248 237 242 283 317 296 303 341 329 326 305 265 238 230 227 237 256 270 273 281 291 308 319 323 357 167 170 172 171 168 168 165 166 167 171 173 179 174
214 237 238 272 287 288 285 257 260 259 274 286 279 278 275 275 274 304 306 291 263 232 228 240 276 249 271 280 288 340 345 173 180 172 168 170 166 177 172 160 126 70 140 124